[Date Prev][Date Next][Thread Prev][Thread Next] - [Date Index][Thread Index][Author Index]

2 Line ISS Keps 4-21 - updated



ISS
1 25544U 98067A   04112.46672667  .00022069  00000-0  19485-3 0  6178
2 25544  51.6276 254.8475 0010999  55.6561  59.0753 15.68542104309412


----
Via the sarex mailing list at AMSAT.ORG courtesy of AMSAT-NA.
To unsubscribe, send "unsubscribe sarex" to Majordomo@amsat.org



AMSAT Top AMSAT Home